OK1VCF-5 Weather Reports


time (UTC)temp
C
wind
direction
speed
KPH
gust
KPH
rain 1hr
cm
rain 24hr
cm
rain mn
cm
humidity
%
barometer
mb
20260506103102 23 0 0.0 0.0 0.00 0.00 0.00 52 1010.8
20260506101600 23 0 0.0 0.0 0.00 0.00 0.00 51 1011.0
20260506094559 22 0 0.0 0.0 0.00 0.00 0.00 52 1011.1
20260506093651 21 0 0.0 0.0 0.00 0.00 0.00 54 1011.3
20260506093058 21 0 0.0 0.0 0.00 0.00 0.00 54 1011.3
20260506091557 21 0 0.0 0.0 0.00 0.00 0.00 55 1011.4
20260506090056 19 0 0.0 0.0 0.00 0.00 0.00 61 1011.4
20260506084555 18 0 0.0 0.0 0.00 0.00 0.00 63 1011.5
20260506083057 21 0 0.0 0.0 0.00 0.00 0.00 60 1011.4
20260506081825 18 0 0.0 0.0 0.00 0.00 0.00 60 1011.5
20260506081553 18 0 0.0 0.0 0.00 0.00 0.00 60 1011.5
20260506073053 18 0 0.0 0.0 0.00 0.00 0.00 66 1011.7
20260506071551 17 0 0.0 0.0 0.00 0.00 0.00 72 1011.7
20260506061548 15 0 0.0 0.0 0.00 0.00 0.00 82 1012.0
20260506044542 12 0 0.0 0.0 0.00 0.00 0.00 94 1012.0
20260506043041 11 0 0.0 0.0 0.00 0.00 0.00 94 1012.0
20260506041542 10 0 0.0 0.0 0.00 0.00 0.00 94 1011.8
20260506040039 10 0 0.0 0.0 0.00 0.00 0.00 95 1011.4
20260506034538 10 0 0.0 0.0 0.00 0.00 0.00 96 1011.6
20260506033039 10 0 0.0 0.0 0.00 0.00 0.00 96 10.1
20260506031539 10 0 0.0 0.0 0.00 0.00 0.00 95 1011.3
20260506030038 10 0 0.0 0.0 0.00 0.00 0.00 95 1011.1
20260506024538 10 0 0.0 0.0 0.00 0.00 0.00 95 1011.2
20260506023036 10 0 0.0 0.0 0.00 0.00 0.00 95 1.0
20260506021535 -17 0 0.0 0.0 0.00 0.00 0.00 95 1011.3
20260506020105 10 0 0.0 0.0 0.00 0.00 0.00 95 1011.4
20260506020033 10 0 0.0 0.0 0.00 0.00 0.00 95 1011.4
20260506014535 11 0 0.0 0.0 0.00 0.00 0.00 94 1011.2
20260506013032 11 0 0.0 0.0 0.00 0.00 0.00 94 1011.2
20260506011532 11 0 0.0 0.0 0.00 0.00 0.00 94 1011.1
20260506010032 11 0 0.0 0.0 0.00 0.00 0.00 94 1011.0
20260506004531 11 0 0.0 0.0 0.00 0.00 0.00 94 1010.9
20260506003028 12 0 0.0 0.0 0.00 0.00 0.00 94 1010.8
20260506001529 12 0 0.0 0.0 0.00 0.00 0.00 93 1010.9
20260506000508 13 0 0.0 0.0 0.00 0.00 0.00 92 1010.8
20260506000028 13 0 0.0 0.0 0.00 0.00 0.00 92 1010.8
20260505234526 13 0 0.0 0.0 0.00 0.00 0.00 92 1010.6
20260505233027 13 0 0.0 0.0 0.00 0.00 0.00 92 1010.8
20260505231526 13 0 0.0 0.0 0.00 0.00 0.00 1011.0
20260505230025 13 0 0.0 0.0 0.00 0.00 0.00 90 1011.0
20260505224524 14 0 0.0 0.0 0.00 0.00 0.00 87 1011.2
20260505223024 14 0 0.0 0.0 0.00 0.00 0.00 86 1011.0
20260505221523 -17 0 0.0 0.0 0.00 0.00 0.00
20260505220022 14 0 0.0 0.0 0.00 0.00 0.00 88 1011.3
20260505214522 14 0 0.0 0.0 0.00 0.00 0.00 86 1011.0
20260505204519 16 0 0.0 0.0 0.00 0.00 0.00 75 0.1
20260505203017 16 0 0.0 0.0 0.00 0.00 0.00 71 1009.9
20260505201516 16 0 0.0 0.0 0.00 0.00 0.00 74 1009.5
20260505200017 15 0 0.0 0.0 0.00 0.00 0.00 76 1008.7
20260505194515 16 0 0.0 0.0 0.00 0.00 0.00 76 1008.5
20260505193014 16 0 0.0 0.0 0.00 0.00 0.00 74 1008.4
20260505191514 16 0 0.0 0.0 0.00 0.00 0.00 76 1007.8
20260505190013 16 0 0.0 0.0 0.00 0.00 0.00 77 1007.7
20260505184513 16 0 0.0 0.0 0.00 0.00 0.00 71 1007.7
20260505174509 18 0 0.0 0.0 0.00 0.00 0.00 63 1007.8
20260505173008 18 0 0.0 0.0 0.00 0.00 0.00 62 1008.0
20260505171507 18 0 0.0 0.0 0.00 0.00 0.00 61 1008.0
20260505170006 20 0 0.0 0.0 0.00 0.00 0.00 60 1008.1
20260505164504 20 0 0.0 0.0 0.00 0.00 0.00 62 1008.3
20260505153001 23 0 0.0 0.0 0.00 0.00 0.00 48 100.8
20260505151500 23 0 0.0 0.0 0.00 0.00 0.00 54 1008.3
20260505124453 26 0 0.0 0.0 0.00 0.00 0.00 37 1009.2
20260505121452 27 0 0.0 0.0 0.00 0.00 0.00 38 1009.6
20260505115951 26 0 0.0 0.0 0.00 0.00 0.00 39 1009.8
20260505114452 27 0 0.0 0.0 0.00 0.00 0.00 39 1010.0
20260505112949 27 0 0.0 0.0 0.00 0.00 0.00 38 1010.1
20260505111448 26 0 0.0 0.0 0.00 0.00 0.00 40 1010.3